Montreal Mirabel, Quebec

10:03 AM EDT on August 24, 2016 (GMT -0400)
Montreal International (Mirabel)

Weather History for CYMX - January, 2012

Change the Weather History Date:

Thursday, January 12, 2012

  Actual Average Record
Temperature  
Mean Temperature 14 °F -  
Max Temperature 19 °F 16 °F 41 °F (2014)
Min Temperature 10 °F 2 °F -9 °F (1999)
Degree Days  
Heating Degree Days 50    
Moisture  
Dew Point 12 °F    
Average Humidity 83    
Maximum Humidity 93    
Minimum Humidity 67    
Precipitation  
Precipitation 0.00 in - - ()
Sea Level Pressure  
Sea Level Pressure 29.78 in    
Wind  
Wind Speed 11 mph ()    
Max Wind Speed 18 mph    
Max Gust Speed 30 mph    
Visibility 4.7 miles    
Events Snow    
Averages and records for this station are not official NWS values.
T = Trace of Precipitation, MM = Missing Value Source: Averaged Metar Reports

Daily Weather History Graph

Daily Weather History Graph

Search for Another Location

Airport or City:

Trip Planner

Search our weather history database for the weather conditions in past years. The results will help you decide how hot, cold, wet, or windy it might be!

Date:

Astronomy

Jan. 12, 2012 Rise Set
Actual Time 7:34 AM EST 4:34 PM EST
Civil Twilight 7:01 AM EST 5:07 PM EST
Nautical Twilight 6:24 AM EST 5:44 PM EST
Astronomical Twilight 5:48 AM EST 6:20 PM EST
Moon 8:51 PM EST (1/12) 9:04 AM EST (1/12)
Length of Visible Light 10h 06m
Length of Day
8h 59m
Waning Gibbous, 87% of the Moon is Illuminated
Jan 12
Waning Gibbous
Jan 16
Last Quarter
Jan 23
New
Jan 30
First Quarter
Feb 7
Full

Hourly Weather History & Observations

Time (EST) Temp. Windchill Dew Point Humidity Pressure Visibility Wind Dir Wind Speed Gust Speed Precip Events Conditions
12:00 AM 10.4 °F -3.3 °F 1.4 °F 67% 30.04 in 15.0 mi ENE 10.4 mph - N/A   Overcast
1:00 AM 12.2 °F -1.8 °F 3.2 °F 67% 30.02 in 15.0 mi ENE 11.5 mph - N/A   Overcast
2:00 AM 12.2 °F -1.0 °F 5.0 °F 73% 30.01 in 15.0 mi NE 10.4 mph 20.7 mph N/A   Overcast
3:00 AM 12.2 °F -1.0 °F 5.0 °F 73% 30.00 in 15.0 mi NE 10.4 mph 18.4 mph N/A   Overcast
4:00 AM 14.0 °F 2.9 °F 6.8 °F 73% 29.97 in 15.0 mi NE 8.1 mph - N/A   Overcast
5:00 AM 14.0 °F -0.2 °F 6.8 °F 73% 29.94 in 15.0 mi NE 12.7 mph 20.7 mph N/A   Overcast
6:00 AM 15.8 °F 3.4 °F 8.6 °F 73% 29.92 in 25.0 mi NE 10.4 mph 19.6 mph N/A   Overcast
7:00 AM 15.8 °F 3.4 °F 8.6 °F 73% 29.90 in 25.0 mi NE 10.4 mph - N/A   Overcast
7:38 AM 15.8 °F 2.1 °F 10.4 °F 79% - 6.0 mi NE 12.7 mph 23.0 mph N/A Snow Light Snow
8:00 AM 15.8 °F 1.4 °F 10.4 °F 79% 29.88 in 3.0 mi NE 13.8 mph 26.5 mph N/A Snow Light Snow
9:00 AM 15.8 °F 1.4 °F 12.2 °F 86% 29.86 in 2.0 mi NE 13.8 mph 28.8 mph N/A Snow Light Snow
10:00 AM 15.8 °F 1.4 °F 12.2 °F 86% 29.83 in 2.0 mi NE 13.8 mph 27.6 mph N/A Snow Light Snow
10:39 AM 15.8 °F -0.2 °F 12.2 °F 86% - 2.0 mi ENE 17.3 mph 27.6 mph N/A Snow Light Snow
11:00 AM 15.8 °F 0.9 °F 12.2 °F 86% 29.80 in 2.0 mi NE 15.0 mph 29.9 mph N/A Snow Light Snow
12:00 PM 17.6 °F 3.7 °F 12.2 °F 79% 29.75 in 3.0 mi NE 13.8 mph 27.6 mph N/A Snow Light Snow
12:44 PM 17.6 °F 3.7 °F 14.0 °F 86% - 0.8 mi NE 13.8 mph 27.6 mph N/A Snow Light Snow
1:00 PM 17.6 °F 3.2 °F 14.0 °F 86% 29.72 in 0.8 mi NE 15.0 mph 27.6 mph N/A Snow Light Snow
2:00 PM 17.6 °F 3.7 °F 14.0 °F 86% 29.69 in 0.8 mi NE 13.8 mph 26.5 mph N/A Snow Light Snow
2:47 PM 19.4 °F 7.2 °F 15.8 °F 86% - 2.0 mi NE 11.5 mph 24.2 mph N/A Snow Light Snow
3:00 PM 19.4 °F 6.0 °F 15.8 °F 86% 29.67 in 2.5 mi NE 13.8 mph 23.0 mph N/A Snow Light Snow
4:00 PM 19.4 °F 6.6 °F 15.8 °F 86% 29.66 in 1.0 mi NE 12.7 mph 25.3 mph N/A Snow Light Snow
5:00 PM 19.4 °F 6.6 °F 15.8 °F 86% 29.64 in 1.5 mi NE 12.7 mph 21.9 mph N/A Snow Light Snow
5:39 PM 19.4 °F 4.1 °F 17.6 °F 93% - 0.8 mi NE 18.4 mph 28.8 mph N/A Snow Light Snow
6:00 PM 19.4 °F 4.1 °F 17.6 °F 93% 29.62 in 0.8 mi NE 18.4 mph 25.3 mph N/A Snow Light Snow
7:00 PM 19.4 °F 5.5 °F 17.6 °F 93% 29.60 in 1.0 mi NE 15.0 mph 26.5 mph N/A Snow Light Snow
8:00 PM 19.4 °F 7.2 °F 15.8 °F 86% 29.59 in 1.0 mi NE 11.5 mph 20.7 mph N/A Snow Light Snow
9:00 PM 19.4 °F 6.6 °F 17.6 °F 93% 29.56 in 1.0 mi NE 12.7 mph 24.2 mph N/A Snow Light Snow
9:52 PM 19.4 °F 5.5 °F 17.6 °F 93% - 2.5 mi NE 15.0 mph 21.9 mph N/A Snow Light Snow
10:00 PM 19.4 °F 6.6 °F 17.6 °F 93% 29.53 in 2.5 mi NE 12.7 mph 23.0 mph N/A Snow Light Snow
11:00 PM 19.4 °F 5.5 °F 17.6 °F 93% 29.51 in 1.5 mi NE 15.0 mph 23.0 mph N/A Snow Light Snow